Weather in Staraya Gyya

Russia / Udmurt Republic     58°07′40″N   53°32′32″E
temp.,
°C
wind,
m/s
gust,
m/s
humid.,
%
clouds,
%
prec.,
mm/h
press.,
hPa
HPBL,
m
28 january, thu
thu2801:00−7ssw51491100 0.1 1019607
04:00−7ssw61492100 0.1 1017604
07:00−6ssw61393100 0.1 1017649
10:00−6ssw51292100 0.3 1016618
13:00−5sw51194100 1.0 1016543
16:00−5ssw4995100 1.9 1017504
19:00−5ssw3794100 0.4 1018421
22:00−7s3797100 0.4 1018312
29 january, fri
fri2901:00−8s3798100 0.0 1018238
04:00−9sse2697100 0.1 1018198
07:00−11sse2696100 0.0 1017137
10:00−10sse389499 0.0 1017240
13:00−8se379297 0.0 1016290
16:00−7se499399 0.0 1015398
19:00−6sse41094100 0.1 1013456
22:00−7se3996100 0.1 1012366
30 january, sat
sat3001:00−6se41092100 0.0 1010385
04:00−5sse51195100 1.1 1008775
07:00−6sse41095100 1.1 1007583
10:00−6sse4994100 1.9 1008488
13:00−4s489498 0.3 1008443
16:00−4s489798 0.3 1008479
19:00−4sse51095100 0.1 1007535
22:00−4sse51294100 1.0 1005770
31 january, sun
sun3101:00−3s51293100 1.1 1005879
04:00−3ssw51194100 1.6 1007739
07:00−6ssw41095100 0.1 1008425
10:00−9ssw399699 0.1 1011269
13:00−6s499392 0.0 1011370
16:00−4sse5119596 0.1 1010508
19:00−1s61396100 1.3 1008948
22:00−2sse61590100 1.6 1005939
1 february, mon
mon101:00−3sse71682100 0.0 1001905
04:00−4s71494100 2.1 9981008
07:00−2s61395100 1.5 996981
10:00−3sw61392100 2.1 997860
13:00−2sw71395100 0.8 1001940
16:00−5wsw81491100 1.6 10061047
19:00−7wsw71490100 0.3 1011829
22:00−9wsw51392100 0.4 1015622